Caldwell, ID

12:18 AM MDT on April 21, 2018 (GMT -0600)
Caldwell Industrial

Weather History for KEUL - March, 2014

Change the Weather History Date:

Friday, March 21, 2014

  Actual Average (KBOI) Record (KBOI)
Temperature  
Mean Temperature 36 °F -  
Max Temperature 48 °F 55 °F 77 °F (1928)
Min Temperature 23 °F 33 °F 18 °F (1897)
Degree Days  
Heating Degree Days 30    
Moisture  
Dew Point 13 °F    
Average Humidity 41    
Maximum Humidity 64    
Minimum Humidity 22    
Precipitation  
Precipitation 0.00 in - - ()
Sea Level Pressure  
Sea Level Pressure 30.17 in    
Wind  
Wind Speed 7 mph (NW)    
Max Wind Speed 13 mph    
Max Gust Speed 16 mph    
Visibility 10 miles    
Events      
Averages and records for this station are not official NWS values.
T = Trace of Precipitation, MM = Missing Value Source: NWS Daily Summary

Daily Weather History Graph

Daily Weather History Graph

Search for Another Location

Airport or City:

Astronomy

Mar. 21, 2014 Rise Set
Actual Time 7:47 AM MDT 8:00 PM MDT
Civil Twilight 7:19 AM MDT 8:28 PM MDT
Nautical Twilight 6:45 AM MDT 9:02 PM MDT
Astronomical Twilight 6:11 AM MDT 9:37 PM MDT
Moon 12:31 AM MDT 10:34 AM MDT
Length of Visible Light 13h 09m
Length of Day
12h 12m
Waning Gibbous, 75% of the Moon is Illuminated
Mar 21
Waning Gibbous
Mar 23
Last Quarter
Mar 30
New
Apr 7
First Quarter
Apr 15
Full

Hourly Weather History & Observations

Time (MDT) Temp. Windchill Dew Point Humidity Pressure Visibility Wind Dir Wind Speed Gust Speed Precip Events Conditions
12:15 AM 33.8 °F 27.0 °F 15.8 °F 48% 30.21 in 10.0 mi West 8.1 mph - N/A   Clear
12:35 AM 33.8 °F 26.4 °F 15.8 °F 48% 30.22 in 10.0 mi West 9.2 mph - N/A   Clear
12:55 AM 32.0 °F 24.2 °F 14.0 °F 48% 30.22 in 10.0 mi WNW 9.2 mph - N/A   Clear
1:15 AM 30.2 °F 23.4 °F 14.0 °F 51% 30.22 in 10.0 mi WNW 6.9 mph - N/A   Clear
1:35 AM 30.2 °F 22.6 °F 14.0 °F 51% 30.22 in 10.0 mi WNW 8.1 mph - N/A   Clear
1:55 AM 28.4 °F 20.4 °F 12.2 °F 51% 30.23 in 10.0 mi WNW 8.1 mph - N/A   Clear
2:15 AM 28.4 °F 19.7 °F 14.0 °F 55% 30.23 in 10.0 mi WNW 9.2 mph - N/A   Clear
2:35 AM 30.2 °F 21.9 °F 14.0 °F 51% 30.22 in 10.0 mi WNW 9.2 mph - N/A   Clear
2:55 AM 28.4 °F 19.1 °F 12.2 °F 51% 30.22 in 10.0 mi WNW 10.4 mph - N/A   Clear
3:15 AM 28.4 °F 19.1 °F 12.2 °F 51% 30.22 in 10.0 mi WNW 10.4 mph - N/A   Clear
3:35 AM 28.4 °F 19.1 °F 12.2 °F 51% 30.22 in 10.0 mi WNW 10.4 mph - N/A   Clear
3:55 AM 28.4 °F 19.7 °F 12.2 °F 51% 30.22 in 10.0 mi WNW 9.2 mph - N/A   Clear
4:15 AM 26.6 °F 18.2 °F 12.2 °F 55% 30.21 in 10.0 mi NW 8.1 mph - N/A   Clear
4:35 AM 26.6 °F 21.2 °F 12.2 °F 55% 30.22 in 10.0 mi NW 4.6 mph - N/A   Clear
4:55 AM 28.4 °F - 12.2 °F 51% 30.22 in 10.0 mi Calm Calm - N/A   Clear
5:15 AM 26.6 °F 18.2 °F 12.2 °F 55% 30.21 in 10.0 mi West 8.1 mph - N/A   Clear
5:35 AM 26.6 °F 17.5 °F 12.2 °F 55% 30.21 in 10.0 mi West 9.2 mph - N/A   Clear
5:55 AM 26.6 °F 17.5 °F 12.2 °F 55% 30.22 in 10.0 mi West 9.2 mph - N/A   Clear
6:15 AM 26.6 °F 19.1 °F 12.2 °F 55% 30.22 in 10.0 mi West 6.9 mph - N/A   Clear
6:35 AM 26.6 °F - 12.2 °F 55% 30.22 in 10.0 mi Calm Calm - N/A   Clear
6:55 AM 26.6 °F - 12.2 °F 55% 30.22 in 10.0 mi Calm Calm - N/A   Clear
7:15 AM 26.6 °F - 10.4 °F 51% 30.22 in 10.0 mi Calm Calm - N/A   Clear
7:35 AM 26.6 °F 20.0 °F 12.2 °F 55% 30.22 in 10.0 mi NW 5.8 mph - N/A   Clear
7:55 AM 24.8 °F 20.5 °F 10.4 °F 54% 30.22 in 10.0 mi NNW 3.5 mph - N/A   Clear
8:15 AM 23.0 °F 15.8 °F 10.4 °F 59% 30.23 in 10.0 mi NE 5.8 mph - N/A   Clear
8:35 AM 24.8 °F 20.5 °F 12.2 °F 59% 30.22 in 10.0 mi NE 3.5 mph - N/A   Clear
8:55 AM 26.6 °F - 15.8 °F 64% 30.23 in 10.0 mi Calm Calm - N/A   Clear
9:15 AM 28.4 °F - 15.8 °F 59% 30.23 in 10.0 mi Calm Calm - N/A   Clear
9:35 AM 30.2 °F - 15.8 °F 55% 30.23 in 10.0 mi Calm Calm - N/A   Clear
9:55 AM 30.2 °F 26.7 °F 15.8 °F 55% 30.22 in 10.0 mi NNW 3.5 mph - N/A   Clear
10:15 AM 32.0 °F 27.5 °F 15.8 °F 51% 30.22 in 10.0 mi NNE 4.6 mph - N/A   Clear
10:35 AM 35.6 °F 30.7 °F 15.8 °F 44% 30.22 in 10.0 mi North 5.8 mph - N/A   Clear
10:55 AM 35.6 °F 30.7 °F 15.8 °F 44% 30.22 in 10.0 mi North 5.8 mph - N/A   Clear
11:15 AM 35.6 °F 32.8 °F 15.8 °F 44% 30.22 in 10.0 mi NE 3.5 mph - N/A   Clear
11:35 AM 39.2 °F - 15.8 °F 39% 30.22 in 10.0 mi Calm Calm - N/A   Clear
11:55 AM 39.2 °F - 17.6 °F 42% 30.21 in 10.0 mi Calm Calm - N/A   Clear
12:15 PM 39.2 °F 37.0 °F 15.8 °F 39% 30.21 in 10.0 mi West 3.5 mph - N/A   Clear
12:35 PM 39.2 °F 37.0 °F 15.8 °F 39% 30.20 in 10.0 mi NNE 3.5 mph - N/A   Clear
12:55 PM 42.8 °F 39.3 °F 15.8 °F 34% 30.19 in 10.0 mi NNW 5.8 mph - N/A   Clear
1:15 PM 44.6 °F 42.2 °F 14.0 °F 29% 30.18 in 10.0 mi North 4.6 mph - N/A   Clear
1:35 PM 44.6 °F 40.7 °F 14.0 °F 29% 30.18 in 10.0 mi NW 6.9 mph - N/A   Clear
1:55 PM 44.6 °F 39.7 °F 12.2 °F 27% 30.18 in 10.0 mi North 9.2 mph - N/A   Clear
2:15 PM 46.4 °F 42.9 °F 14.0 °F 27% 30.17 in 10.0 mi NE 6.9 mph - N/A   Clear
2:35 PM 46.4 °F - 12.2 °F 25% 30.16 in 10.0 mi Calm Calm - N/A   Clear
2:55 PM 46.4 °F 45.2 °F 12.2 °F 25% 30.15 in 10.0 mi North 3.5 mph - N/A   Clear
3:15 PM 48.2 °F - 12.2 °F 24% 30.14 in 10.0 mi North 6.9 mph - N/A   Clear
3:35 PM 48.2 °F - 12.2 °F 24% 30.13 in 10.0 mi WSW 4.6 mph - N/A   Clear
3:55 PM 48.2 °F - 12.2 °F 24% 30.12 in 10.0 mi NNE 3.5 mph - N/A   Clear
4:15 PM 48.2 °F - 12.2 °F 24% 30.12 in 10.0 mi NNW 5.8 mph - N/A   Clear
4:35 PM 48.2 °F - 12.2 °F 24% 30.11 in 10.0 mi NNW 10.4 mph - N/A   Clear
4:55 PM 48.2 °F - 12.2 °F 24% 30.10 in 9.0 mi NW 10.4 mph - N/A   Clear
5:15 PM 46.4 °F 42.9 °F 10.4 °F 23% 30.10 in 10.0 mi WNW 6.9 mph - N/A   Clear
5:35 PM 48.2 °F - 10.4 °F 22% 30.10 in 10.0 mi NW 11.5 mph 16.1 mph N/A   Clear
5:55 PM 48.2 °F - 10.4 °F 22% 30.10 in 10.0 mi NNW 10.4 mph - N/A   Clear
6:15 PM 48.2 °F - 10.4 °F 22% 30.10 in 10.0 mi NNW 12.7 mph - N/A   Clear
6:35 PM 46.4 °F 41.9 °F 10.4 °F 23% 30.09 in 10.0 mi NW 9.2 mph - N/A   Clear
6:55 PM 46.4 °F 41.1 °F 10.4 °F 23% 30.09 in 10.0 mi NNW 11.5 mph - N/A   Clear
7:15 PM 44.6 °F 40.2 °F 8.6 °F 23% 30.09 in 10.0 mi NW 8.1 mph - N/A   Clear
7:35 PM 42.8 °F 38.6 °F 8.6 °F 25% 30.09 in 10.0 mi NW 6.9 mph - N/A   Clear
7:55 PM 42.8 °F 38.0 °F 8.6 °F 25% 30.09 in 10.0 mi NW 8.1 mph - N/A   Clear
8:15 PM 42.8 °F 39.3 °F 10.4 °F 27% 30.09 in 10.0 mi WNW 5.8 mph - N/A   Clear
8:35 PM 42.8 °F 38.6 °F 12.2 °F 29% 30.09 in 10.0 mi WNW 6.9 mph - N/A   Clear
8:55 PM 39.2 °F 34.2 °F 12.2 °F 33% 30.10 in 10.0 mi WNW 6.9 mph - N/A   Clear
9:15 PM 39.2 °F 34.2 °F 12.2 °F 33% 30.11 in 10.0 mi WNW 6.9 mph - N/A   Clear
9:35 PM 39.2 °F 37.0 °F 12.2 °F 33% 30.11 in 10.0 mi West 3.5 mph - N/A   Clear
9:55 PM 39.2 °F 35.0 °F 12.2 °F 33% 30.11 in 10.0 mi West 5.8 mph - N/A   Clear
10:15 PM 37.4 °F 32.1 °F 12.2 °F 36% 30.12 in 10.0 mi WNW 6.9 mph - N/A   Clear
10:35 PM 37.4 °F 31.4 °F 10.4 °F 33% 30.13 in 10.0 mi WNW 8.1 mph - N/A   Clear
10:55 PM 35.6 °F 29.2 °F 12.2 °F 38% 30.13 in 10.0 mi WNW 8.1 mph - N/A   Clear
11:15 PM 35.6 °F 30.7 °F 12.2 °F 38% 30.14 in 10.0 mi NW 5.8 mph - N/A   Clear
11:35 PM 33.8 °F 27.0 °F 12.2 °F 41% 30.14 in 10.0 mi NW 8.1 mph - N/A   Clear
11:55 PM 32.0 °F 23.6 °F 14.0 °F 48% 30.14 in 10.0 mi WNW 10.4 mph - N/A   Clear